sat.trackr.live / text

‹ back to catalog

SUPERBIRD-B3

NORAD 43271 · 2018-033A

PAYLOAD ACTIVE UNKNOWN

§ Identity

Operator
Country
JPN
Launch date
2018-04-05
Launch site
FRGUI
Launch vehicle
Mass (kg)
RCS (m²)

Purposes: comms

External: N2YO · Heavens-Above · Gunter

§ Orbital elements

Epoch: 2026-09-14T21:24:59.956704Z

Period
1,436.09 min
Inclination
0.0209°
Eccentricity
0.0001022
Mean motion
1.00272426 rev/d
Perigee alt
35,782.1 km
Apogee alt
35,790.7 km
Semi-major
42,164.6 km
B*
0.0000e+0
RAAN
135.1410°
Arg perigee
36.3170°
Mean anomaly
305.6760°
Rev number
3,096

§ Raw data

SUPERBIRD-B31 43271U 18033A   26257.89236061 -.00000099  00000+0  00000+0 0  99962 43271   0.0209 135.1410 0001022  36.3170 305.6760  1.00272426 30969

JSON: /api/v1/satellites/43271 · /tle

For live sub-satellite position, see the globe view (requires WebGL).

§ Visibility from observer

Set your observer location to see the next 7 days of passes ≥ 10°. The values pass through the URL so the page stays shareable.

No JS? Fill the form by hand. The geolocation button needs JavaScript.